| time (UTC) | temp F | wind direction | speed MPH | gust MPH | rain 1hr in | rain 24hr in | rain mn in | humidity % | barometer mb |
| 20260903020326 | 82 | 142 | 9.0 | 14.0 | 0.00 | 0.02 | 0.02 | 72 | 1012.1 |
| 20260903015831 | 82 | 121 | 4.0 | 10.0 | 0.00 | 0.02 | 0.02 | 72 | 1012.1 |
| 20260903015402 | 82 | 102 | 6.0 | 10.0 | 0.00 | 0.02 | 0.02 | 72 | 1012.1 |
| 20260903014846 | 82 | 52 | 4.0 | 9.0 | 0.00 | 0.02 | 0.02 | 72 | 1011.9 |
| 20260903014329 | 82 | 120 | 4.0 | 10.0 | 0.00 | 0.02 | 0.02 | 71 | 1011.9 |
| 20260903013831 | 82 | 138 | 6.0 | 11.0 | 0.00 | 0.02 | 0.02 | 71 | 1011.8 |
| 20260903013319 | 82 | 103 | 6.0 | 11.0 | 0.00 | 0.02 | 0.02 | 71 | 1011.7 |
| 20260903012846 | 82 | 125 | 5.0 | 10.0 | 0.00 | 0.02 | 0.02 | 71 | 1011.7 |
| 20260903012329 | 83 | 98 | 6.0 | 10.0 | 0.00 | 0.02 | 0.02 | 71 | 1011.7 |
| 20260903011835 | 83 | 101 | 5.0 | 9.0 | 0.00 | 0.02 | 0.02 | 71 | 1011.7 |
| 20260903011319 | 83 | 85 | 4.0 | 11.0 | 0.00 | 0.02 | 0.02 | 71 | 1011.7 |
| 20260903010831 | 83 | 71 | 5.0 | 11.0 | 0.00 | 0.02 | 0.02 | 70 | 1011.5 |
| 20260903010338 | 83 | 70 | 4.0 | 8.0 | 0.00 | 0.02 | 0.02 | 70 | 1011.4 |
| 20260903005824 | 83 | 63 | 4.0 | 9.0 | 0.00 | 0.02 | 0.02 | 70 | 1011.5 |
| 20260903005330 | 83 | 60 | 5.0 | 9.0 | 0.00 | 0.02 | 0.02 | 70 | 1011.4 |
| 20260903004831 | 83 | 57 | 4.0 | 9.0 | 0.00 | 0.02 | 0.02 | 70 | 1011.4 |
| 20260903004336 | 84 | 88 | 5.0 | 10.0 | 0.00 | 0.02 | 0.02 | 70 | 1011.3 |
| 20260903003821 | 84 | 109 | 5.0 | 12.0 | 0.00 | 0.02 | 0.02 | 70 | 1011.2 |
| 20260903003328 | 84 | 71 | 5.0 | 15.0 | 0.00 | 0.02 | 0.02 | 70 | 1011.1 |
| 20260903002832 | 84 | 103 | 9.0 | 15.0 | 0.00 | 0.02 | 0.02 | 70 | 1011.0 |
| 20260903002317 | 84 | 164 | 7.0 | 16.0 | 0.00 | 0.02 | 0.02 | 69 | 1011.0 |
| 20260903001823 | 85 | 91 | 7.0 | 16.0 | 0.00 | 0.02 | 0.02 | 69 | 1011.1 |
| 20260903001323 | 85 | 133 | 7.0 | 16.0 | 0.00 | 0.02 | 0.02 | 69 | 1011.1 |
| 20260903000836 | 85 | 72 | 8.0 | 17.0 | 0.00 | 0.02 | 0.02 | 69 | 1011.2 |
| 20260903000342 | 86 | 92 | 7.0 | 15.0 | 0.00 | 0.02 | 0.02 | 69 | 1011.2 |
| 20260902235827 | 86 | 89 | 7.0 | 15.0 | 0.00 | 0.02 | 0.02 | 69 | 1011.3 |
| 20260902235330 | 86 | 96 | 11.0 | 15.0 | 0.00 | 0.02 | 0.02 | 69 | 1011.2 |
| 20260902234835 | 87 | 60 | 9.0 | 15.0 | 0.00 | 0.02 | 0.02 | 69 | 1011.2 |
| 20260902234341 | 87 | 88 | 8.0 | 14.0 | 0.00 | 0.02 | 0.02 | 69 | 1011.3 |
| 20260902233830 | 87 | 99 | 10.0 | 19.0 | 0.00 | 0.02 | 0.02 | 69 | 1011.2 |
| 20260902233336 | 87 | 96 | 11.0 | 19.0 | 0.00 | 0.02 | 0.02 | 69 | 1011.3 |
| 20260902232823 | 87 | 52 | 10.0 | 17.0 | 0.00 | 0.02 | 0.02 | 69 | 1011.4 |
| 20260902232326 | 87 | 71 | 10.0 | 20.0 | 0.00 | 0.02 | 0.02 | 69 | 1011.3 |
| 20260902231901 | 87 | 71 | 12.0 | 20.0 | 0.00 | 0.02 | 0.02 | 69 | 1011.3 |
| 20260902231326 | 87 | 75 | 7.0 | 15.0 | 0.00 | 0.02 | 0.02 | 69 | 1011.2 |
| 20260902230831 | 87 | 71 | 8.0 | 18.0 | 0.00 | 0.02 | 0.02 | 68 | 1011.1 |
| 20260902230336 | 87 | 57 | 11.0 | 18.0 | 0.00 | 0.02 | 0.02 | 68 | 1011.2 |
| 20260902225838 | 87 | 44 | 9.0 | 17.0 | 0.00 | 0.02 | 0.02 | 68 | 1011.2 |
| 20260902225318 | 87 | 49 | 9.0 | 16.0 | 0.00 | 0.02 | 0.02 | 68 | 1011.0 |
| 20260902224824 | 87 | 53 | 7.0 | 14.0 | 0.00 | 0.02 | 0.02 | 68 | 1010.9 |
| 20260902224329 | 87 | 80 | 6.0 | 14.0 | 0.00 | 0.02 | 0.02 | 68 | 1010.7 |
| 20260902223834 | 87 | 84 | 9.0 | 14.0 | 0.00 | 0.02 | 0.02 | 68 | 1010.6 |
| 20260902223318 | 87 | 83 | 7.0 | 14.0 | 0.00 | 0.02 | 0.02 | 67 | 1010.6 |
| 20260902222823 | 87 | 64 | 6.0 | 13.0 | 0.00 | 0.02 | 0.02 | 67 | 1010.6 |
| 20260902222355 | 87 | 69 | 9.0 | 13.0 | 0.00 | 0.02 | 0.02 | 67 | 1010.5 |
| 20260902221843 | 87 | 108 | 7.0 | 13.0 | 0.00 | 0.02 | 0.02 | 67 | 1010.4 |
| 20260902221327 | 87 | 88 | 9.0 | 13.0 | 0.00 | 0.02 | 0.02 | 67 | 1010.5 |
| 20260902220839 | 87 | 65 | 7.0 | 10.0 | 0.00 | 0.02 | 0.02 | 66 | 1010.4 |
| 20260902220320 | 88 | 54 | 5.0 | 13.0 | 0.00 | 0.02 | 0.02 | 66 | 1010.4 |
| 20260902215834 | 88 | 68 | 8.0 | 13.0 | 0.00 | 0.02 | 0.02 | 66 | 1010.4 |
| 20260902215338 | 88 | 98 | 6.0 | 15.0 | 0.00 | 0.02 | 0.02 | 66 | 1010.4 |
| 20260902214826 | 88 | 40 | 8.0 | 15.0 | 0.00 | 0.02 | 0.02 | 65 | 1010.5 |
| 20260902214346 | 88 | 100 | 4.0 | 15.0 | 0.01 | 0.02 | 0.02 | 65 | 1010.5 |
| 20260902213835 | 88 | 71 | 4.0 | 9.0 | 0.02 | 0.02 | 0.02 | 65 | 1010.5 |
| 20260902213321 | 88 | 114 | 2.0 | 7.0 | 0.02 | 0.02 | 0.02 | 64 | 1010.4 |
| 20260902212826 | 87 | 98 | 4.0 | 8.0 | 0.02 | 0.02 | 0.02 | 64 | 1010.5 |
| 20260902212333 | 87 | 95 | 5.0 | 8.0 | 0.02 | 0.02 | 0.02 | 63 | 1010.6 |
| 20260902211845 | 87 | 89 | 5.0 | 8.0 | 0.02 | 0.02 | 0.02 | 62 | 1010.6 |
| 20260902211351 | 87 | 86 | 5.0 | 7.0 | 0.02 | 0.02 | 0.02 | 62 | 1010.6 |
| 20260902210818 | 88 | 65 | 3.0 | 5.0 | 0.02 | 0.02 | 0.02 | 62 | 1010.7 |
| 20260902210347 | 88 | 65 | 2.0 | 4.0 | 0.02 | 0.02 | 0.02 | 61 | 1010.8 |
| 20260902205855 | 89 | 51 | 2.0 | 3.0 | 0.02 | 0.02 | 0.02 | 61 | 1010.7 |
| 20260902205318 | 89 | 31 | 1.0 | 16.0 | 0.02 | 0.02 | 0.02 | 61 | 1010.9 |
| 20260902204826 | 91 | 315 | 2.0 | 16.0 | 0.02 | 0.02 | 0.02 | 61 | 1011.0 |
| 20260902204331 | 91 | 327 | 5.0 | 10.0 | 0.01 | 0.01 | 0.01 | 62 | 1011.2 |
| 20260902203818 | 91 | 64 | 2.0 | 9.0 | 0.00 | 0.00 | 0.00 | 62 | 1010.9 |
| 20260902203329 | 92 | 55 | 4.0 | 9.0 | 0.00 | 0.00 | 0.00 | 62 | 1010.9 |
| 20260902202834 | 92 | 55 | 5.0 | 9.0 | 0.00 | 0.00 | 0.00 | 62 | 1010.9 |
| 20260902202340 | 92 | 59 | 6.0 | 9.0 | 0.00 | 0.00 | 0.00 | 62 | 1010.9 |
| 20260902201823 | 93 | 79 | 5.0 | 8.0 | 0.00 | 0.00 | 0.00 | 63 | 1010.9 |
| 20260902201335 | 94 | 50 | 5.0 | 7.0 | 0.00 | 0.00 | 0.00 | 64 | 1011.0 |
| 20260902200844 | 94 | 315 | 3.0 | 8.0 | 0.00 | 0.00 | 0.00 | 64 | 1011.0 |
| 20260902200328 | 94 | 283 | 4.0 | 15.0 | 0.00 | 0.00 | 0.00 | 65 | 1011.1 |
| 20260902195836 | 94 | 264 | 5.0 | 15.0 | 0.00 | 0.00 | 0.00 | 65 | 1011.2 |
| 20260902195321 | 94 | 269 | 6.0 | 14.0 | 0.00 | 0.00 | 0.00 | 65 | 1011.3 |
| 20260902194827 | 94 | 263 | 7.0 | 14.0 | 0.00 | 0.00 | 0.00 | 66 | 1011.4 |
| 20260902194331 | 94 | 251 | 5.0 | 13.0 | 0.00 | 0.00 | 0.00 | 67 | 1011.4 |
| 20260902193834 | 94 | 286 | 6.0 | 13.0 | 0.00 | 0.00 | 0.00 | 67 | 1011.5 |
| 20260902193318 | 93 | 259 | 5.0 | 11.0 | 0.00 | 0.00 | 0.00 | 68 | 1011.6 |
| 20260902192826 | 92 | 236 | 3.0 | 11.0 | 0.00 | 0.00 | 0.00 | 68 | 1011.7 |
| 20260902192326 | 92 | 238 | 6.0 | 10.0 | 0.00 | 0.00 | 0.00 | 68 | 1011.9 |
| 20260902191833 | 92 | 306 | 4.0 | 16.0 | 0.00 | 0.00 | 0.00 | 68 | 1011.9 |
| 20260902191340 | 92 | 238 | 9.0 | 16.0 | 0.00 | 0.00 | 0.00 | 68 | 1012.0 |
| 20260902190826 | 92 | 266 | 5.0 | 15.0 | 0.00 | 0.00 | 0.00 | 69 | 1012.1 |
| 20260902190329 | 92 | 269 | 8.0 | 13.0 | 0.00 | 0.00 | 0.00 | 69 | 1012.2 |
| 20260902185837 | 92 | 249 | 8.0 | 15.0 | 0.00 | 0.00 | 0.00 | 70 | 1012.2 |
| 20260902185322 | 92 | 247 | 9.0 | 15.0 | 0.00 | 0.00 | 0.00 | 70 | 1012.2 |
| 20260902184824 | 92 | 254 | 8.0 | 14.0 | 0.00 | 0.00 | 0.00 | 71 | 1012.3 |
| 20260902184355 | 92 | 260 | 7.0 | 14.0 | 0.00 | 0.00 | 0.00 | 71 | 1012.3 |
| 20260902183842 | 92 | 273 | 6.0 | 15.0 | 0.00 | 0.00 | 0.00 | 71 | 1012.4 |
| 20260902183328 | 92 | 258 | 11.0 | 16.0 | 0.00 | 0.00 | 0.00 | 72 | 1012.5 |
| 20260902182836 | 92 | 280 | 9.0 | 16.0 | 0.00 | 0.00 | 0.00 | 72 | 1012.6 |
| 20260902182320 | 92 | 290 | 6.0 | 15.0 | 0.00 | 0.00 | 0.00 | 72 | 1012.7 |
| 20260902181828 | 92 | 286 | 8.0 | 18.0 | 0.00 | 0.00 | 0.00 | 73 | 1012.8 |
| 20260902181401 | 92 | 275 | 10.0 | 18.0 | 0.00 | 0.00 | 0.00 | 74 | 1012.8 |
| 20260902180846 | 92 | 285 | 7.0 | 23.0 | 0.00 | 0.00 | 0.00 | 74 | 1013.0 |
| 20260902180331 | 92 | 249 | 12.0 | 23.0 | 0.00 | 0.00 | 0.00 | 75 | 1013.0 |
| 20260902175834 | 92 | 269 | 11.0 | 18.0 | 0.00 | 0.00 | 0.00 | 75 | 1013.2 |
| 20260902175337 | 91 | 271 | 9.0 | 15.0 | 0.00 | 0.00 | 0.00 | 75 | 1013.3 |
| 20260902174824 | 92 | 263 | 10.0 | 20.0 | 0.00 | 0.00 | 0.00 | 76 | 1013.4 |
| 20260902174326 | 92 | 265 | 11.0 | 20.0 | 0.00 | 0.00 | 0.00 | 76 | 1013.5 |
| 20260902173833 | 92 | 259 | 9.0 | 20.0 | 0.00 | 0.00 | 0.00 | 77 | 1013.5 |
| 20260902173320 | 91 | 258 | 9.0 | 20.0 | 0.00 | 0.00 | 0.00 | 78 | 1013.6 |
| 20260902172824 | 91 | 244 | 8.0 | 17.0 | 0.00 | 0.00 | 0.00 | 78 | 1013.7 |
| 20260902172325 | 91 | 227 | 8.0 | 17.0 | 0.00 | 0.00 | 0.00 | 78 | 1013.9 |
| 20260902171836 | 91 | 216 | 8.0 | 14.0 | 0.00 | 0.00 | 0.00 | 78 | 1013.9 |
| 20260902171345 | 91 | 225 | 7.0 | 15.0 | 0.00 | 0.00 | 0.00 | 78 | 1014.0 |
| 20260902170829 | 91 | 254 | 8.0 | 15.0 | 0.00 | 0.00 | 0.00 | 79 | 1014.2 |
| 20260902170331 | 90 | 270 | 6.0 | 13.0 | 0.00 | 0.00 | 0.00 | 80 | 1014.2 |
| 20260902165838 | 90 | 309 | 4.0 | 10.0 | 0.00 | 0.00 | 0.00 | 80 | 1014.2 |
| 20260902165321 | 89 | 266 | 5.0 | 11.0 | 0.00 | 0.00 | 0.00 | 80 | 1014.3 |
| 20260902164826 | 89 | 280 | 4.0 | 11.0 | 0.00 | 0.00 | 0.00 | 80 | 1014.4 |
| 20260902164327 | 89 | 271 | 5.0 | 11.0 | 0.00 | 0.00 | 0.00 | 81 | 1014.4 |
| 20260902163859 | 88 | 281 | 5.0 | 11.0 | 0.00 | 0.00 | 0.00 | 81 | 1014.5 |
| 20260902163343 | 88 | 275 | 5.0 | 11.0 | 0.00 | 0.00 | 0.00 | 80 | 1014.6 |
| 20260902162830 | 88 | 327 | 2.0 | 9.0 | 0.00 | 0.00 | 0.00 | 81 | 1014.7 |
| 20260902162354 | 88 | 23 | 3.0 | 9.0 | 0.00 | 0.00 | 0.00 | 82 | 1014.6 |
| 20260902161905 | 88 | 236 | 6.0 | 10.0 | 0.00 | 0.00 | 0.00 | 82 | 1014.7 |
| 20260902161327 | 87 | 286 | 2.0 | 10.0 | 0.00 | 0.00 | 0.00 | 82 | 1014.7 |
| 20260902160850 | 87 | 57 | 3.0 | 12.0 | 0.00 | 0.00 | 0.00 | 82 | 1014.7 |
| 20260902160340 | 86 | 336 | 4.0 | 12.0 | 0.00 | 0.00 | 0.00 | 82 | 1014.7 |
| 20260902155847 | 86 | 301 | 4.0 | 9.0 | 0.00 | 0.00 | 0.00 | 82 | 1014.7 |
| 20260902155329 | 86 | 284 | 3.0 | 9.0 | 0.00 | 0.00 | 0.00 | 82 | 1014.8 |
| 20260902154834 | 85 | 309 | 4.0 | 9.0 | 0.00 | 0.00 | 0.00 | 82 | 1014.9 |
| 20260902154320 | 85 | 275 | 3.0 | 9.0 | 0.00 | 0.00 | 0.00 | 82 | 1014.8 |
| 20260902153828 | 85 | 273 | 6.0 | 12.0 | 0.00 | 0.00 | 0.00 | 83 | 1014.9 |
| 20260902153331 | 85 | 283 | 4.0 | 12.0 | 0.00 | 0.00 | 0.00 | 83 | 1014.8 |
| 20260902152819 | 85 | 241 | 5.0 | 11.0 | 0.00 | 0.00 | 0.00 | 83 | 1014.6 |
| 20260902152318 | 84 | 265 | 8.0 | 16.0 | 0.00 | 0.00 | 0.00 | 83 | 1014.7 |
| 20260902151824 | 84 | 263 | 7.0 | 16.0 | 0.00 | 0.00 | 0.00 | 83 | 1014.7 |
| 20260902151330 | 84 | 320 | 3.0 | 11.0 | 0.00 | 0.00 | 0.00 | 83 | 1014.6 |
| 20260902150836 | 83 | 236 | 6.0 | 10.0 | 0.00 | 0.00 | 0.00 | 83 | 1014.7 |
| 20260902150342 | 83 | 244 | 3.0 | 9.0 | 0.00 | 0.00 | 0.00 | 83 | 1014.8 |
| 20260902145834 | 82 | 265 | 5.0 | 9.0 | 0.00 | 0.00 | 0.00 | 83 | 1014.7 |
| 20260902145337 | 82 | 270 | 3.0 | 9.0 | 0.00 | 0.00 | 0.00 | 83 | 1014.7 |
| 20260902144842 | 81 | 250 | 5.0 | 9.0 | 0.00 | 0.00 | 0.00 | 83 | 1014.7 |
| 20260902144328 | 81 | 302 | 2.0 | 6.0 | 0.00 | 0.00 | 0.00 | 83 | 1014.8 |
| 20260902143830 | 80 | 304 | 2.0 | 9.0 | 0.00 | 0.00 | 0.00 | 83 | 1014.8 |
| 20260902143401 | 79 | 331 | 4.0 | 9.0 | 0.00 | 0.00 | 0.00 | 83 | 1014.9 |
| 20260902142844 | 79 | 302 | 1.0 | 5.0 | 0.00 | 0.00 | 0.00 | 83 | 1014.9 |
| 20260902142327 | 79 | 304 | 2.0 | 4.0 | 0.00 | 0.00 | 0.00 | 82 | 1014.8 |
| 20260902141829 | 78 | 317 | 3.0 | 4.0 | 0.00 | 0.00 | 0.00 | 82 | 1014.8 |
| 20260902141334 | 78 | 325 | 1.0 | 4.0 | 0.00 | 0.00 | 0.00 | 82 | 1014.8 |
| 20260902140819 | 78 | 323 | 3.0 | 4.0 | 0.00 | 0.00 | 0.00 | 82 | 1014.8 |
| 20260902140323 | 78 | 323 | 1.0 | 4.0 | 0.00 | 0.00 | 0.00 | 82 | 1014.8 |
| 20260902135829 | 78 | 324 | 2.0 | 4.0 | 0.00 | 0.00 | 0.00 | 82 | 1014.8 |
| 20260902135402 | 78 | 324 | 2.0 | 4.0 | 0.00 | 0.00 | 0.00 | 82 | 1014.9 |
| 20260902134825 | 78 | 323 | 1.0 | 4.0 | 0.00 | 0.00 | 0.00 | 81 | 1014.9 |
| 20260902134330 | 77 | 325 | 2.0 | 4.0 | 0.00 | 0.00 | 0.00 | 81 | 1014.8 |
| 20260902133324 | 77 | 326 | 2.0 | 3.0 | 0.00 | 0.00 | 0.00 | 81 | 1014.9 |
| 20260902132829 | 77 | 326 | 0.0 | 4.0 | 0.00 | 0.00 | 0.00 | 81 | 1014.8 |
| 20260902132335 | 77 | 292 | 2.0 | 4.0 | 0.00 | 0.00 | 0.00 | 81 | 1014.8 |
| 20260902131842 | 77 | 292 | 2.0 | 4.0 | 0.00 | 0.00 | 0.00 | 81 | 1014.7 |
| 20260902131333 | 77 | 303 | 2.0 | 4.0 | 0.00 | 0.00 | 0.00 | 81 | 1014.7 |
| 20260902130839 | 76 | 301 | 3.0 | 4.0 | 0.00 | 0.00 | 0.00 | 81 | 1014.6 |
| 20260902130326 | 76 | 312 | 3.0 | 4.0 | 0.00 | 0.00 | 0.00 | 81 | 1014.6 |
| 20260902125826 | 76 | 300 | 3.0 | 4.0 | 0.00 | 0.00 | 0.00 | 81 | 1014.4 |
| 20260902125327 | 76 | 305 | 2.0 | 4.0 | 0.00 | 0.00 | 0.00 | 80 | 1014.2 |
| 20260902124833 | 76 | 269 | 3.0 | 6.0 | 0.00 | 0.00 | 0.00 | 80 | 1014.2 |
| 20260902124318 | 76 | 282 | 3.0 | 4.0 | 0.00 | 0.00 | 0.00 | 80 | 1014.2 |
| 20260902123822 | 76 | 281 | 2.0 | 4.0 | 0.00 | 0.00 | 0.00 | 80 | 1014.2 |
| 20260902123336 | 76 | 276 | 2.0 | 4.0 | 0.00 | 0.00 | 0.00 | 80 | 1014.0 |
| 20260902122847 | 76 | 277 | 2.0 | 4.0 | 0.00 | 0.00 | 0.00 | 80 | 1014.0 |
| 20260902122350 | 76 | 263 | 3.0 | 4.0 | 0.00 | 0.00 | 0.00 | 80 | 1013.9 |
| 20260902121833 | 76 | 257 | 2.0 | 4.0 | 0.00 | 0.00 | 0.00 | 80 | 1013.9 |
| 20260902121317 | 76 | 255 | 2.0 | 4.0 | 0.00 | 0.00 | 0.00 | 80 | 1013.9 |
| 20260902120822 | 76 | 254 | 2.0 | 4.0 | 0.00 | 0.00 | 0.00 | 80 | 1013.9 |
| 20260902120357 | 76 | 254 | 2.0 | 6.0 | 0.00 | 0.00 | 0.00 | 79 | 1013.9 |
| 20260902115822 | 76 | 257 | 3.0 | 6.0 | 0.00 | 0.00 | 0.00 | 79 | 1013.9 |
| 20260902115327 | 76 | 258 | 2.0 | 4.0 | 0.00 | 0.00 | 0.00 | 79 | 1013.8 |
| 20260902114834 | 76 | 258 | 2.0 | 4.0 | 0.00 | 0.00 | 0.00 | 79 | 1013.8 |
| 20260902114322 | 76 | 258 | 3.0 | 4.0 | 0.00 | 0.00 | 0.00 | 79 | 1013.8 |
| 20260902113823 | 76 | 258 | 3.0 | 4.0 | 0.00 | 0.00 | 0.00 | 79 | 1013.9 |
| 20260902113330 | 76 | 325 | 3.0 | 4.0 | 0.00 | 0.00 | 0.00 | 79 | 1013.8 |
| 20260902112840 | 76 | 325 | 2.0 | 4.0 | 0.00 | 0.00 | 0.00 | 79 | 1013.8 |
| 20260902112332 | 75 | 325 | 3.0 | 4.0 | 0.00 | 0.00 | 0.00 | 79 | 1013.8 |